SCP
0 0 0 0 0 0 0 0 0 0 0 0 0 0 0 0 0 0 0 0 0 0 0 0 0 0 0 0 0 0 0 0 0 0 0 0 0 0 0 0 0 0 0
0 0 0 0 0 0 0 0 0 0 0 0 0 0 0 0 0 0 0 0 0 0 0 0 0 0 0 0 0 0 0 0 0 0 0 0 0 0 0 0 0 0 0
0 0 0 0 0 0 0 0 0 0 0 0 0 -0 -0 -0 0 0 0 0 0 0 0 0 0 0 0 0 0 0 0 0 0 0 0 0 0 0 0 0 0 0 0
0 0 0 0 0 0 0 0 0 0 0 0 0 0 0 0 -0 0 0 0 0 0 0 0 0 0 0 0 0 0 0 0 0 0 0 0 0 0 0 0 0 0 0
0 0 0 0 0 0 0 0 0 0 0 0 0 0 0 0 0 0 0 0 0 0 0 0 0 0 0 0 0 0 0 0 0 0 0 0 0 0 0 0 0 0 0
0 0 0 0 0 0 0 0 0 0 0 0 0 0 0 0 0 0 0 0 0 0 0 0 0 0 0 0 0 0 0 0 0 0 0 0 0 0 0 0 0 0 0
0 0 0 0 0 0 0 0 0 0 0 0 0 0 0 0 0 0 0 0 0 0 0 0 0 0 0 0 0 0 0 0 0 0 0 0 0 0 0 0 0 0 0
0 0 0 0 0 0 0 0 0 0 0 0 0 0 0 0 0 0 0 0 0 0 0 0 0 0 0 0 0 0 0 0 0 0 0 0 0 0 0 -0 0 0 0
0 0 0 0 0 0 0 0 0 0 0 0 0 0 0 0 0 0 0 0 0 0 0 0 0 0 0 0 0 0 0 0 0 0 0 0 0 0 0 0 0 0 0
0 0 0 0 0 0 0 0 0 0 0 0 0 0 0 0 0 0 0 0 0 0 0 0 0 0 0 0 0 0 0 0 0 0 0 0 0 0 0 0 0 0 0
0 0 0 0 0 0 0 0 0 0 0 0 0 0 0 0 0 0 0 0 0 0 -0 0 0 0 0 0 0 0 0 0 0 0 0 0 0 0 0 0 0 0 0
0 0 0 0 0 0 0 0 0 0 0 0 0 0 0 0 0 0 0 0 0 0 0 -0 -0 -0 0 0 0 0 0 0 0 0 0 0 0 0 0 0 0 0 0
0 0 0 0 0 0 0 0 0 0 0 0 0 0 0 0 0 0 0 0 0 0 -0 -0 -0 -0 -0 -0 0 0 0 0 0 0 0 0 0 0 0 0 0 0 0
0 0 0 0 0 0 0 0 0 0 0 0 0 0 0 0 0 0 0 0 0 -0 -0 0 -0 -0 -0 -0 -0 0 0 0 0 0 0 0 0 0 0 0 0 0 0
0 0 0 0 0 0 0 0 0 0 0 0 0 0 0 0 0 0 0 0 0 -0 -0 -0 -0 0 0 0 0 -0 -0 -0 0 0 0 0 0 0 0 0 0 0 0
0 0 0 0 0 0 0 0 0 0 0 0 0 0 0 0 0 0 0 0 0 0 0 0 0 0 0 0 0 0 0 -0 -0 0 0 0 0 0 0 0 0 0 0
0 0 0 0 0 0 0 0 0 0 0 0 0 0 0 0 0 0 0 0 0 0 0 0 0 0 -0 -0 0 0 0 -0 -0 -0 -0 0 0 0 0 0 0 0 0
0 0 0 0 0 0 0 0 0 0 0 0 0 0 0 0 0 0 0 0 0 0 0 0 0 0 -0 0 -0 -0 -0 -0 -0 0 0 0 0 0 0 0 0 0 0
0 0 0 0 0 0 0 0 0 0 0 0 0 0 0 0 0 0 0 0 0 0 0 0 0 0 0 0 -0 -0 -0 -0 -0 -0 0 0 0 0 0 0 0 0 0
0 0 0 0 0 0 0 0 0 0 0 0 0 0 0 0 0 0 0 0 0 0 0 0 0 0 0 0 0 -0 -0 -0 -0 0 0 0 0 0 0 0 0 0 0
0 0 0 0 0 0 0 0 0 0 0 0 0 0 0 0 0 0 0 0 0 0 0 0 0 0 0 0 -0 -0 -0 -0 -0 -0 0 0 -0 0 0 0 0 0 0
0 0 0 0 0 0 0 0 0 0 0 0 0 0 0 0 0 0 0 0 0 0 0 0 0 0 0 0 0 0 0 0 -0 -0 -0 0 0 0 0 0 0 0 0
0 0 0 0 0 0 0 0 0 0 0 0 0 0 0 0 0 0 0 0 0 0 0 0 0 0 0 0 0 0 0 0 0 0 0 0 0 0 0 0 0 0 0
0 0 0 0 0 0 0 0 0 0 0 0 0 0 0 0 0 0 0 0 0 0 0 0 0 0 0 0 0 0 0 0 0 0 0 0 0 0 0 0 0 0 0
0 0 0 0 0 0 0 0 0 0 0 0 0 0 0 0 0 0 0 0 0 0 0 0 0 0 0 0 0 0 0 0 0 0 0 0 0 0 0 0 0 -0 0
0 0 0 0 0 0 0 0 0 0 0 0 0 0 0 0 0 0 0 0 0 0 0 0 0 0 0 0 0 0 0 0 0 0 0 0 0 0 0 0 -0 -0 -0
Wind_Speed_500mb
15 15 14 14 16 16 22 22 22 23 23 30 35 30 30 29 27 27 27 26 26 26 26 25 25 23 23 23 25 25 23 20 18 21 26 25 25 28 29 32 37 39 37
22 21 23 21 18 17 18 17 24 27 29 24 31 40 44 41 39 35 33 33 32 32 31 30 29 28 26 24 19 18 27 29 23 20 25 27 28 30 28 30 32 35 38
19 19 16 15 18 15 24 28 31 26 16 28 27 34 39 46 50 46 43 41 38 37 35 37 35 34 32 29 27 25 20 33 32 31 26 25 29 34 31 28 31 33 36
10 13 12 16 19 23 19 16 14 19 26 28 26 28 37 42 45 48 48 44 43 42 41 40 39 39 38 35 32 31 31 24 35 35 37 34 32 31 34 30 28 31 35
2 6 6 8 10 12 10 11 14 17 22 25 32 36 38 36 37 39 44 45 44 39 37 40 39 42 43 42 39 36 35 35 27 33 42 44 42 42 39 39 32 32 33
5 1 2 5 6 7 9 11 12 17 23 30 36 34 29 26 31 29 29 30 29 28 30 33 35 36 39 42 44 43 41 40 42 40 26 42 51 44 51 43 40 35 35
4 2 5 7 9 10 10 12 12 12 21 23 18 14 10 14 10 12 19 18 23 26 30 33 37 40 41 40 40 42 43 44 47 50 52 28 41 49 44 50 49 39 37
7 4 5 7 8 11 13 15 17 15 21 24 24 17 11 11 15 25 12 21 17 18 24 27 30 33 39 43 44 43 43 46 49 51 51 56 39 37 46 45 48 41 37
13 11 11 12 12 13 16 20 22 23 25 28 28 22 12 9 39 7 26 19 38 38 45 43 40 45 40 36 37 43 47 48 49 52 55 57 62 59 46 46 45 45 49
11 10 11 12 13 16 18 21 23 25 25 26 24 23 17 19 14 24 26 39 26 57 54 54 50 52 44 46 40 38 40 47 51 53 54 56 61 68 67 64 48 42 43
10 9 9 11 14 17 20 21 23 25 27 27 29 30 29 25 10 29 42 64 65 65 54 64 66 50 54 47 44 46 40 36 38 47 56 60 60 61 67 77 76 73 62
8 9 11 13 15 18 20 23 26 27 28 29 28 28 30 30 31 32 43 55 65 72 74 72 69 71 55 56 58 50 45 50 45 48 46 47 58 65 65 67 75 86 89
4 6 8 11 14 18 21 23 25 28 30 30 32 33 33 34 37 40 45 57 61 76 74 75 65 61 72 54 53 69 64 61 66 73 64 61 53 51 62 70 71 70 76
3 1 5 10 14 16 20 24 26 28 30 32 33 35 39 40 41 43 45 54 69 63 75 71 71 55 62 68 76 84 88 86 85 82 76 71 67 64 57 56 66 74 75
4 1 5 10 16 21 23 25 26 29 31 34 36 38 43 45 48 51 51 49 47 53 68 67 62 68 78 84 90 94 97 94 90 85 82 78 76 74 70 68 61 60 70
1 4 10 15 19 23 27 29 31 32 34 38 42 45 48 51 53 54 55 56 55 53 63 82 89 87 90 93 94 93 92 97 99 93 89 84 79 79 79 76 75 71 63
3 7 14 21 26 28 30 32 33 37 41 44 47 50 53 55 56 58 60 62 63 55 60 104 96 91 77 87 96 92 93 94 94 94 92 89 83 80 81 82 81 79 78
7 14 20 24 28 29 31 34 36 39 42 47 50 53 57 59 62 63 65 66 68 68 60 82 107 99 82 71 79 84 86 86 84 90 85 78 84 81 79 80 83 84 83
14 18 23 24 26 29 33 36 39 43 46 49 52 57 61 64 68 68 68 73 74 73 71 68 102 89 80 72 77 78 78 80 75 62 56 54 55 56 65 70 75 81 86
23 25 26 27 29 33 37 41 44 46 47 49 55 60 63 65 68 72 75 74 72 74 70 68 82 92 77 71 60 66 77 70 77 79 82 76 75 77 78 82 74 76 76
30 32 33 32 32 34 39 43 46 49 50 53 57 61 63 67 71 73 72 73 72 71 67 71 78 79 73 77 69 68 72 76 75 69 74 68 62 61 67 63 57 54 41
38 40 39 37 36 37 39 44 50 52 54 57 61 63 65 69 70 71 70 62 52 59 67 71 77 79 84 80 76 71 69 74 77 61 58 75 67 69 69 64 59 66 82
47 47 45 43 42 41 42 47 52 54 57 59 62 64 67 67 68 67 66 60 58 56 55 64 75 78 82 82 81 80 77 78 80 82 77 84 75 73 64 63 59 58 59
53 52 52 50 48 45 47 50 56 58 58 61 62 64 66 67 65 61 63 70 75 75 73 73 78 86 89 88 87 90 94 95 92 80 65 78 75 78 73 70 60 62 65
57 56 55 54 52 50 53 57 59 59 59 61 63 63 66 68 64 52 61 72 78 79 68 57 55 65 74 77 75 80 83 81 82 81 66 69 79 77 71 70 69 55 42
55 57 57 57 56 56 56 57 58 58 59 60 60 61 62 53 47 52 60 71 82 84 80 76 79 80 76 77 69 62 69 77 80 79 48 46 73 72 79 63 13 15 46
Wind_Direction_500mb
239 255 272 261 266 278 296 303 314 321 324 334 333 330 330 322 309 298 290 287 286 284 284 284 285 284 284 289 295 302 300 292 297 296 293 285 276 270 265 262 259 255 247
264 259 260 263 265 272 279 283 299 302 308 316 329 330 327 323 321 312 304 296 288 287 284 280 278 277 278 277 272 285 296 298 297 293 298 299 291 285 278 271 264 259 254
261 269 290 277 279 292 290 293 286 293 294 305 313 317 320 327 323 321 316 310 302 293 285 282 281 279 276 273 270 259 262 293 290 297 293 307 303 296 288 275 268 265 258
258 292 300 284 290 298 283 294 292 293 304 310 311 311 311 311 314 315 313 311 306 300 295 286 281 278 275 274 270 267 257 251 284 290 298 299 301 302 295 284 275 269 266
189 277 309 39 349 347 352 329 319 318 314 316 315 312 311 306 302 300 304 305 305 300 293 290 285 282 280 277 274 270 264 257 256 276 287 290 296 302 298 287 280 272 268
107 26 9 343 313 318 321 321 313 312 313 309 311 316 319 314 303 311 315 317 321 320 318 312 305 296 287 282 279 274 270 264 253 248 269 278 283 288 298 291 284 274 270
174 231 294 290 297 290 288 307 318 329 315 329 329 317 2 323 347 352 340 324 323 318 317 314 311 310 307 299 289 281 272 267 262 256 255 271 259 278 284 300 294 281 277
142 118 81 68 46 30 21 13 17 1 350 352 359 7 344 306 309 332 332 336 329 330 326 321 320 313 303 295 294 291 282 272 266 261 256 248 251 271 267 287 292 285 280
95 82 69 56 49 40 30 27 23 19 16 10 14 21 354 330 327 300 320 333 320 322 327 329 330 333 324 316 300 285 280 279 276 269 263 256 250 248 255 269 275 279 289
96 81 59 47 34 26 16 11 10 8 6 7 3 11 5 347 333 318 287 327 308 316 322 321 327 325 323 323 320 304 288 277 273 272 269 265 258 253 251 251 254 261 272
93 76 53 30 16 14 12 10 5 3 2 2 0 354 348 346 308 315 315 314 319 323 327 320 322 322 323 315 315 310 307 299 291 280 274 270 265 259 255 249 252 253 256
76 47 32 20 13 7 2 0 359 355 356 352 350 347 342 339 321 318 310 313 315 320 315 325 324 321 320 312 307 298 300 298 305 310 299 284 275 268 261 257 254 254 256
88 42 18 9 1 356 352 349 347 344 342 341 339 338 333 326 320 317 313 312 313 317 319 317 320 314 313 310 301 297 299 293 293 300 296 293 289 279 273 266 260 259 258
144 40 340 346 347 343 339 338 336 336 334 333 333 331 329 326 323 319 315 315 315 313 315 313 318 314 301 303 302 300 297 295 295 294 292 289 285 285 281 275 269 263 261
191 287 349 349 349 341 338 334 332 332 331 330 329 328 326 325 323 321 317 315 309 304 306 308 309 305 299 297 298 300 300 297 295 293 290 287 284 281 278 279 275 271 264
174 347 348 343 339 335 333 331 330 329 329 328 328 327 325 324 322 320 317 314 307 296 293 301 302 302 302 300 299 298 296 296 297 294 291 286 282 279 278 274 273 274 271
284 330 342 339 335 330 325 324 325 327 328 327 326 326 324 324 322 319 318 314 309 301 290 303 301 303 299 300 300 299 298 298 295 297 295 292 286 278 275 274 271 269 270
292 328 331 327 325 323 320 320 323 324 324 325 325 326 324 323 321 320 316 312 307 304 295 293 303 300 301 297 297 298 302 300 299 298 297 295 293 287 277 272 271 269 268
294 304 313 318 318 316 316 317 319 321 322 324 325 324 323 321 319 317 313 310 307 304 302 296 299 301 300 302 301 300 297 295 300 302 298 297 294 287 286 279 271 268 266
279 289 298 306 309 313 317 316 314 314 316 318 319 319 319 318 316 314 311 310 308 305 302 297 297 300 304 307 305 303 300 297 292 291 288 288 285 282 284 287 287 280 271
273 280 286 292 298 308 315 313 310 309 310 313 314 315 316 316 315 313 312 309 306 305 305 305 302 302 303 306 308 307 300 302 301 302 303 298 294 284 280 282 272 270 265
272 277 278 283 290 300 309 311 308 306 307 310 313 315 316 315 314 312 309 305 302 304 302 299 301 302 303 302 304 302 300 302 300 310 305 300 305 300 299 297 292 279 269
272 275 275 279 281 290 300 307 306 304 305 309 312 314 315 314 313 313 310 308 308 309 297 297 293 297 302 303 302 299 298 297 295 306 306 298 307 303 304 301 296 292 288
274 275 274 276 281 290 299 305 304 302 305 308 311 313 314 315 316 314 316 318 316 313 312 306 299 299 299 302 298 298 297 296 296 298 300 293 298 295 297 294 293 293 299
274 274 273 276 281 288 298 302 300 298 302 305 309 313 315 315 318 317 312 308 310 310 311 298 293 292 291 291 290 290 289 289 291 290 292 291 293 297 300 299 296 299 296
273 273 275 278 282 289 294 295 292 293 298 302 305 310 311 311 310 312 308 305 302 300 305 304 296 293 294 296 297 289 286 284 287 290 298 290 295 300 303 306 351 257 284
Wind_Speed_850mb
15 15 14 14 16 16 22 22 22 23 23 30 35 30 30 29 27 27 27 26 26 26 26 25 25 23 23 23 25 25 23 20 18 21 26 25 25 28 29 32 37 39 37
22 21 23 21 18 17 18 17 24 27 29 24 31 40 44 41 39 35 33 33 32 32 31 30 29 28 26 24 19 18 27 29 23 20 25 27 28 30 28 30 32 35 38
19 19 16 15 18 15 24 28 31 26 16 28 27 34 39 46 50 46 43 41 38 37 35 37 35 34 32 29 27 25 20 33 32 31 26 25 29 34 31 28 31 33 36
10 13 12 16 19 23 19 16 14 19 26 28 26 28 37 42 45 48 48 44 43 42 41 40 39 39 38 35 32 31 31 24 35 35 37 34 32 31 34 30 28 31 35
2 6 6 8 10 12 10 11 14 17 22 25 32 36 38 36 37 39 44 45 44 39 37 40 39 42 43 42 39 36 35 35 27 33 42 44 42 42 39 39 32 32 33
5 1 2 5 6 7 9 11 12 17 23 30 36 34 29 26 31 29 29 30 29 28 30 33 35 36 39 42 44 43 41 40 42 40 26 42 51 44 51 43 40 35 35
4 2 5 7 9 10 10 12 12 12 21 23 18 14 10 14 10 12 19 18 23 26 30 33 37 40 41 40 40 42 43 44 47 50 52 28 41 49 44 50 49 39 37
7 4 5 7 8 11 13 15 17 15 21 24 24 17 11 11 15 25 12 21 17 18 24 27 30 33 39 43 44 43 43 46 49 51 51 56 39 37 46 45 48 41 37
13 11 11 12 12 13 16 20 22 23 25 28 28 22 12 9 39 7 26 19 38 38 45 43 40 45 40 36 37 43 47 48 49 52 55 57 62 59 46 46 45 45 49
11 10 11 12 13 16 18 21 23 25 25 26 24 23 17 19 14 24 26 39 26 57 54 54 50 52 44 46 40 38 40 47 51 53 54 56 61 68 67 64 48 42 43
10 9 9 11 14 17 20 21 23 25 27 27 29 30 29 25 10 29 42 64 65 65 54 64 66 50 54 47 44 46 40 36 38 47 56 60 60 61 67 77 76 73 62
8 9 11 13 15 18 20 23 26 27 28 29 28 28 30 30 31 32 43 55 65 72 74 72 69 71 55 56 58 50 45 50 45 48 46 47 58 65 65 67 75 86 89
4 6 8 11 14 18 21 23 25 28 30 30 32 33 33 34 37 40 45 57 61 76 74 75 65 61 72 54 53 69 64 61 66 73 64 61 53 51 62 70 71 70 76
3 1 5 10 14 16 20 24 26 28 30 32 33 35 39 40 41 43 45 54 69 63 75 71 71 55 62 68 76 84 88 86 85 82 76 71 67 64 57 56 66 74 75
4 1 5 10 16 21 23 25 26 29 31 34 36 38 43 45 48 51 51 49 47 53 68 67 62 68 78 84 90 94 97 94 90 85 82 78 76 74 70 68 61 60 70
1 4 10 15 19 23 27 29 31 32 34 38 42 45 48 51 53 54 55 56 55 53 63 82 89 87 90 93 94 93 92 97 99 93 89 84 79 79 79 76 75 71 63
3 7 14 21 26 28 30 32 33 37 41 44 47 50 53 55 56 58 60 62 63 55 60 104 96 91 77 87 96 92 93 94 94 94 92 89 83 80 81 82 81 79 78
7 14 20 24 28 29 31 34 36 39 42 47 50 53 57 59 62 63 65 66 68 68 60 82 107 99 82 71 79 84 86 86 84 90 85 78 84 81 79 80 83 84 83
14 18 23 24 26 29 33 36 39 43 46 49 52 57 61 64 68 68 68 73 74 73 71 68 102 89 80 72 77 78 78 80 75 62 56 54 55 56 65 70 75 81 86
23 25 26 27 29 33 37 41 44 46 47 49 55 60 63 65 68 72 75 74 72 74 70 68 82 92 77 71 60 66 77 70 77 79 82 76 75 77 78 82 74 76 76
30 32 33 32 32 34 39 43 46 49 50 53 57 61 63 67 71 73 72 73 72 71 67 71 78 79 73 77 69 68 72 76 75 69 74 68 62 61 67 63 57 54 41
38 40 39 37 36 37 39 44 50 52 54 57 61 63 65 69 70 71 70 62 52 59 67 71 77 79 84 80 76 71 69 74 77 61 58 75 67 69 69 64 59 66 82
47 47 45 43 42 41 42 47 52 54 57 59 62 64 67 67 68 67 66 60 58 56 55 64 75 78 82 82 81 80 77 78 80 82 77 84 75 73 64 63 59 58 59
53 52 52 50 48 45 47 50 56 58 58 61 62 64 66 67 65 61 63 70 75 75 73 73 78 86 89 88 87 90 94 95 92 80 65 78 75 78 73 70 60 62 65
57 56 55 54 52 50 53 57 59 59 59 61 63 63 66 68 64 52 61 72 78 79 68 57 55 65 74 77 75 80 83 81 82 81 66 69 79 77 71 70 69 55 42
55 57 57 57 56 56 56 57 58 58 59 60 60 61 62 53 47 52 60 71 82 84 80 76 79 80 76 77 69 62 69 77 80 79 48 46 73 72 79 63 13 15 46
Wind_Direction_850mb
239 255 272 261 266 278 296 303 314 321 324 334 333 330 330 322 309 298 290 287 286 284 284 284 285 284 284 289 295 302 300 292 297 296 293 285 276 270 265 262 259 255 247
264 259 260 263 265 272 279 283 299 302 308 316 329 330 327 323 321 312 304 296 288 287 284 280 278 277 278 277 272 285 296 298 297 293 298 299 291 285 278 271 264 259 254
261 269 290 277 279 292 290 293 286 293 294 305 313 317 320 327 323 321 316 310 302 293 285 282 281 279 276 273 270 259 262 293 290 297 293 307 303 296 288 275 268 265 258
258 292 300 284 290 298 283 294 292 293 304 310 311 311 311 311 314 315 313 311 306 300 295 286 281 278 275 274 270 267 257 251 284 290 298 299 301 302 295 284 275 269 266
189 277 309 39 349 347 352 329 319 318 314 316 315 312 311 306 302 300 304 305 305 300 293 290 285 282 280 277 274 270 264 257 256 276 287 290 296 302 298 287 280 272 268
107 26 9 343 313 318 321 321 313 312 313 309 311 316 319 314 303 311 315 317 321 320 318 312 305 296 287 282 279 274 270 264 253 248 269 278 283 288 298 291 284 274 270
174 231 294 290 297 290 288 307 318 329 315 329 329 317 2 323 347 352 340 324 323 318 317 314 311 310 307 299 289 281 272 267 262 256 255 271 259 278 284 300 294 281 277
142 118 81 68 46 30 21 13 17 1 350 352 359 7 344 306 309 332 332 336 329 330 326 321 320 313 303 295 294 291 282 272 266 261 256 248 251 271 267 287 292 285 280
95 82 69 56 49 40 30 27 23 19 16 10 14 21 354 330 327 300 320 333 320 322 327 329 330 333 324 316 300 285 280 279 276 269 263 256 250 248 255 269 275 279 289
96 81 59 47 34 26 16 11 10 8 6 7 3 11 5 347 333 318 287 327 308 316 322 321 327 325 323 323 320 304 288 277 273 272 269 265 258 253 251 251 254 261 272
93 76 53 30 16 14 12 10 5 3 2 2 0 354 348 346 308 315 315 314 319 323 327 320 322 322 323 315 315 310 307 299 291 280 274 270 265 259 255 249 252 253 256
76 47 32 20 13 7 2 0 359 355 356 352 350 347 342 339 321 318 310 313 315 320 315 325 324 321 320 312 307 298 300 298 305 310 299 284 275 268 261 257 254 254 256
88 42 18 9 1 356 352 349 347 344 342 341 339 338 333 326 320 317 313 312 313 317 319 317 320 314 313 310 301 297 299 293 293 300 296 293 289 279 273 266 260 259 258
144 40 340 346 347 343 339 338 336 336 334 333 333 331 329 326 323 319 315 315 315 313 315 313 318 314 301 303 302 300 297 295 295 294 292 289 285 285 281 275 269 263 261
191 287 349 349 349 341 338 334 332 332 331 330 329 328 326 325 323 321 317 315 309 304 306 308 309 305 299 297 298 300 300 297 295 293 290 287 284 281 278 279 275 271 264
174 347 348 343 339 335 333 331 330 329 329 328 328 327 325 324 322 320 317 314 307 296 293 301 302 302 302 300 299 298 296 296 297 294 291 286 282 279 278 274 273 274 271
284 330 342 339 335 330 325 324 325 327 328 327 326 326 324 324 322 319 318 314 309 301 290 303 301 303 299 300 300 299 298 298 295 297 295 292 286 278 275 274 271 269 270
292 328 331 327 325 323 320 320 323 324 324 325 325 326 324 323 321 320 316 312 307 304 295 293 303 300 301 297 297 298 302 300 299 298 297 295 293 287 277 272 271 269 268
294 304 313 318 318 316 316 317 319 321 322 324 325 324 323 321 319 317 313 310 307 304 302 296 299 301 300 302 301 300 297 295 300 302 298 297 294 287 286 279 271 268 266
279 289 298 306 309 313 317 316 314 314 316 318 319 319 319 318 316 314 311 310 308 305 302 297 297 300 304 307 305 303 300 297 292 291 288 288 285 282 284 287 287 280 271
273 280 286 292 298 308 315 313 310 309 310 313 314 315 316 316 315 313 312 309 306 305 305 305 302 302 303 306 308 307 300 302 301 302 303 298 294 284 280 282 272 270 265
272 277 278 283 290 300 309 311 308 306 307 310 313 315 316 315 314 312 309 305 302 304 302 299 301 302 303 302 304 302 300 302 300 310 305 300 305 300 299 297 292 279 269
272 275 275 279 281 290 300 307 306 304 305 309 312 314 315 314 313 313 310 308 308 309 297 297 293 297 302 303 302 299 298 297 295 306 306 298 307 303 304 301 296 292 288
274 275 274 276 281 290 299 305 304 302 305 308 311 313 314 315 316 314 316 318 316 313 312 306 299 299 299 302 298 298 297 296 296 298 300 293 298 295 297 294 293 293 299
274 274 273 276 281 288 298 302 300 298 302 305 309 313 315 315 318 317 312 308 310 310 311 298 293 292 291 291 290 290 289 289 291 290 292 291 293 297 300 299 296 299 296
273 273 275 278 282 289 294 295 292 293 298 302 305 310 311 311 310 312 308 305 302 300 305 304 296 293 294 296 297 289 286 284 287 290 298 290 295 300 303 306 351 257 284